Погода в Орле

Россия / Пермский край     59°20′25″N   56°35′15″E
темп.,
°C
ветер,
м/с
пор.,
м/с
влажн.,
%
обл.,
%
осадки,
мм/ч
давл.,
гПа
погр.,
м
18 августа, чт
чт1823:00+10ссв22880 0.0 102518
02:00+8ссв22780 0.0 102633
05:00+6св22810 0.0 102717
08:00+10св11653 0.0 1028151
11:00+16с22455 0.0 1028850
14:00+19ссв23330 0.0 10281623
17:00+20ссв34320 0.0 10281871
20:00+15с12560 0.0 102811
19 августа, пт
пт1923:00+11с11669 0.0 103010
02:00+8юв117414 0.0 103110
05:00+7зюз117897 0.0 103210
08:00+11зсз126174 0.0 1033132
11:00+18зсз24406 0.0 1033689
14:00+22сз35355 0.0 10321207
17:00+23ссз45415 0.0 10301312
20:00+19зсз24675 0.0 103072
20 августа, сб
сб2023:00+15зсз39795 0.0 1030173
02:00+14сз28865 0.0 1030155
05:00+13сз26925 0.0 1030111
08:00+17ссз267840 0.0 1030210
11:00+24ссз36535 0.0 1029709
14:00+27ссз57435 0.0 10281544
17:00+26сз3748100 0.0 10271184
20:00+22ссз3116226 0.0 1027415
21 августа, вс
вс2123:00+17ссз23825 0.0 102856
02:00+16с22905 0.0 102819
05:00+15ссз229623 0.1 102937
08:00+18с248558 0.1 1029181
11:00+24с24595 0.1 1029773
14:00+27с35465 0.0 10281767
17:00+23ссз2464100 0.1 102894
20:00+22ссз22712 0.0 102827
22 августа, пн
пн2223:00+18с118021 0.0 102912
02:00+17св008611 0.0 102811
05:00+16ссз118743 0.0 102911
08:00+19с13730 0.0 1030130
11:00+25с23470 0.0 1030638
14:00+28ссз22360 0.0 10292041
17:00+28ссз22355 0.0 10292194
20:00+22ссз22600 0.0 102918